Volver al catálogo

STARLINK-1506

ActivoComunicacionesVLEO
NORAD 45747·PAYLOAD·🇺🇸 United States

Lanzado Jun 13, 2020 desde Cape Canaveral Space Force Station

Loading…

Próximos Pases (próximas 24 horas)

TLE

ActualizadoSource: CelesTrak SupGP

Época: Sep 15, 2026, 02:52 UTC

1 45747C 20038T   26258.11993056 -.00017936  00000+0 -57740-3 0  2588
2 45747  53.0747  42.6643 0004058 131.9095 239.8387 15.31666528    19

Sigue STARLINK-1506 en tiempo real con AllMySat

Download on the App Store